Time,TemperatureF,DewpointF,PressureIn,WindDirection,WindDirectionDegrees,WindSpeedMPH,WindSpeedGustMPH,Humidity,HourlyPrecipIn,Conditions,Clouds,dailyrainin,SoftwareType,DateUTC
2013-04-02 00:00:00,68.8,61.7,30.00,South,177,0.0,1.0,78,0.00,,BKN018,0.00,VWS V14.01,2013-04-02 05:00:00,
2013-04-02 00:05:00,68.8,61.7,30.00,South,178,0.0,1.0,78,0.00,,OVC018,0.00,VWS V14.01,2013-04-02 05:05:00,
2013-04-02 00:10:00,68.8,61.3,30.00,SSE,161,2.0,5.0,77,0.00,,OVC018,0.00,VWS V14.01,2013-04-02 05:10:00,
2013-04-02 00:15:00,68.8,61.3,30.00,South,176,0.0,5.0,77,0.00,,OVC018,0.00,VWS V14.01,2013-04-02 05:15:00,
2013-04-02 00:20:00,68.8,61.7,30.00,SSE,161,1.0,1.0,78,0.00,,OVC018,0.00,VWS V14.01,2013-04-02 05:20:00,
2013-04-02 00:25:00,68.8,61.7,30.00,SSE,161,1.0,2.0,78,0.00,,OVC018,0.00,VWS V14.01,2013-04-02 05:25:00,
2013-04-02 00:30:00,68.8,61.7,30.00,SSE,161,0.0,0.0,78,0.00,,OVC018,0.00,VWS V14.01,2013-04-02 05:30:00,
2013-04-02 00:35:00,68.8,61.7,29.99,SSE,161,0.0,1.0,78,0.00,,OVC018,0.00,VWS V14.01,2013-04-02 05:35:00,
2013-04-02 00:40:00,68.8,61.7,29.99,SSE,161,0.0,0.0,78,0.00,,OVC018,0.00,VWS V14.01,2013-04-02 05:40:00,
2013-04-02 00:45:00,68.6,61.8,29.99,SSE,161,0.0,0.0,79,0.00,,OVC018,0.00,VWS V14.01,2013-04-02 05:45:00,
2013-04-02 00:50:00,68.6,61.8,29.98,SSE,161,0.0,0.0,79,0.00,,OVC018,0.00,VWS V14.01,2013-04-02 05:50:00,
2013-04-02 00:55:00,68.6,61.8,29.98,SSE,161,0.0,0.0,79,0.00,,OVC018,0.00,VWS V14.01,2013-04-02 05:55:00,
2013-04-02 01:00:00,68.6,61.8,29.98,SSE,161,0.0,0.0,79,0.00,,OVC018,0.00,VWS V14.01,2013-04-02 06:00:00,
2013-04-02 01:05:00,68.4,61.6,29.98,SSE,161,0.0,0.0,79,0.00,,OVC016,0.00,VWS V14.01,2013-04-02 06:05:00,
2013-04-02 01:10:00,68.4,61.6,29.98,SSE,161,0.0,0.0,79,0.00,,OVC016,0.00,VWS V14.01,2013-04-02 06:10:00,
2013-04-02 01:15:00,68.4,61.6,29.98,SSE,161,0.0,0.0,79,0.00,,OVC016,0.00,VWS V14.01,2013-04-02 06:15:00,
2013-04-02 01:20:00,68.4,62.0,29.97,SSE,161,0.0,0.0,80,0.00,,OVC016,0.00,VWS V14.01,2013-04-02 06:20:00,
2013-04-02 01:25:00,68.4,62.0,29.97,SSE,161,0.0,1.0,80,0.00,,OVC016,0.00,VWS V14.01,2013-04-02 06:25:00,
2013-04-02 01:30:00,68.4,61.6,29.97,SSE,161,0.0,0.0,79,0.00,,OVC016,0.00,VWS V14.01,2013-04-02 06:30:00,
2013-04-02 01:35:00,68.4,61.6,29.97,SSE,161,0.0,2.0,79,0.00,,OVC016,0.00,VWS V14.01,2013-04-02 06:35:00,
2013-04-02 01:40:00,68.4,61.6,29.97,SSE,161,1.0,4.0,79,0.00,,OVC016,0.00,VWS V14.01,2013-04-02 06:40:00,
2013-04-02 01:45:00,68.3,61.5,29.97,SSE,161,0.0,4.0,79,0.00,,OVC016,0.00,VWS V14.01,2013-04-02 06:45:00,
2013-04-02 01:50:00,68.1,61.3,29.95,SSE,161,0.0,2.0,79,0.00,,OVC016,0.00,VWS V14.01,2013-04-02 06:50:00,
2013-04-02 01:55:00,68.1,61.7,29.95,SSE,161,0.0,2.0,80,0.00,,OVC016,0.00,VWS V14.01,2013-04-02 06:55:00,
2013-04-02 02:00:00,67.9,61.5,29.95,SSE,161,0.0,0.0,80,0.00,,OVC016,0.00,VWS V14.01,2013-04-02 07:00:00,
2013-04-02 02:05:00,67.9,61.5,29.94,SSE,161,0.0,0.0,80,0.00,,OVC018,0.00,VWS V14.01,2013-04-02 07:05:00,
2013-04-02 02:10:00,67.8,61.4,29.94,SSE,161,0.0,0.0,80,0.00,,OVC018,0.00,VWS V14.01,2013-04-02 07:10:00,
2013-04-02 02:15:00,67.6,61.6,29.94,SSE,161,0.0,1.0,81,0.00,,OVC018,0.00,VWS V14.01,2013-04-02 07:15:00,
2013-04-02 02:20:00,67.6,61.6,29.94,SSE,157,0.0,0.0,81,0.00,,OVC018,0.00,VWS V14.01,2013-04-02 07:20:00,
2013-04-02 02:25:00,67.4,61.4,29.94,SSE,155,0.0,1.0,81,0.00,,OVC018,0.00,VWS V14.01,2013-04-02 07:25:00,
2013-04-02 02:30:00,67.3,61.6,29.94,SSE,155,0.0,0.0,82,0.00,,OVC018,0.00,VWS V14.01,2013-04-02 07:30:00,
2013-04-02 02:35:00,67.1,61.4,29.95,SSE,155,0.0,0.0,82,0.00,,OVC018,0.00,VWS V14.01,2013-04-02 07:35:00,
2013-04-02 02:40:00,66.9,61.2,29.95,SSE,155,0.0,0.0,82,0.00,,SCT021,0.00,VWS V14.01,2013-04-02 07:40:00,
2013-04-02 02:45:00,66.8,61.1,29.95,SSE,155,0.0,0.0,82,0.00,,SCT021,0.00,VWS V14.01,2013-04-02 07:45:00,
2013-04-02 02:50:00,66.6,61.3,29.94,SSE,155,0.0,0.0,83,0.00,,SCT021,0.00,VWS V14.01,2013-04-02 07:50:00,
2013-04-02 02:55:00,66.6,61.3,29.94,SSE,155,0.0,0.0,83,0.00,,SCT021,0.00,VWS V14.01,2013-04-02 07:55:00,
2013-04-02 03:00:00,66.4,61.1,29.94,SSE,155,0.0,0.0,83,0.00,,SCT021,0.00,VWS V14.01,2013-04-02 08:00:00,
2013-04-02 03:05:00,66.3,61.3,29.92,SSE,155,0.0,0.0,84,0.00,,CLR,0.00,VWS V14.01,2013-04-02 08:05:00,
2013-04-02 03:10:00,66.3,61.3,29.92,SSE,155,0.0,0.0,84,0.00,,CLR,0.00,VWS V14.01,2013-04-02 08:10:00,
2013-04-02 03:15:00,66.1,61.1,29.92,SSE,155,0.0,0.0,84,0.00,,CLR,0.00,VWS V14.01,2013-04-02 08:15:00,
2013-04-02 03:20:00,66.1,61.5,29.92,SSE,155,0.0,0.0,85,0.00,,CLR,0.00,VWS V14.01,2013-04-02 08:20:00,
2013-04-02 03:25:00,65.9,61.3,29.92,SSE,155,0.0,1.0,85,0.00,,CLR,0.00,VWS V14.01,2013-04-02 08:25:00,
2013-04-02 03:30:00,65.9,61.3,29.92,SSE,155,0.0,0.0,85,0.00,,CLR,0.00,VWS V14.01,2013-04-02 08:30:00,
2013-04-02 03:35:00,65.9,61.3,29.93,SSE,159,0.0,1.0,85,0.00,,CLR,0.00,VWS V14.01,2013-04-02 08:35:00,
2013-04-02 03:40:00,66.1,61.5,29.93,SSE,159,0.0,0.0,85,0.00,,CLR,0.00,VWS V14.01,2013-04-02 08:40:00,
2013-04-02 03:45:00,66.1,61.8,29.93,SSE,159,0.0,0.0,86,0.00,,CLR,0.00,VWS V14.01,2013-04-02 08:45:00,
2013-04-02 03:50:00,66.1,61.5,29.94,SSE,159,0.0,0.0,85,0.00,,CLR,0.00,VWS V14.01,2013-04-02 08:50:00,
2013-04-02 03:55:00,66.3,61.7,29.94,SSE,159,0.0,0.0,85,0.00,,CLR,0.00,VWS V14.01,2013-04-02 08:55:00,
2013-04-02 04:00:00,66.3,61.7,29.94,SSE,159,0.0,1.0,85,0.00,,CLR,0.00,VWS V14.01,2013-04-02 09:00:00,
2013-04-02 04:05:00,66.3,61.7,29.93,SSE,159,0.0,1.0,85,0.00,,BKN011,0.00,VWS V14.01,2013-04-02 09:05:00,
2013-04-02 04:10:00,66.3,61.7,29.93,SSE,159,0.0,0.0,85,0.00,,BKN011,0.00,VWS V14.01,2013-04-02 09:10:00,
2013-04-02 04:15:00,66.3,61.7,29.93,SSE,159,0.0,0.0,85,0.00,,BKN011,0.00,VWS V14.01,2013-04-02 09:15:00,
2013-04-02 04:20:00,66.3,61.7,29.94,SSE,159,0.0,0.0,85,0.00,,BKN011,0.00,VWS V14.01,2013-04-02 09:20:00,
2013-04-02 04:25:00,66.4,61.8,29.94,SSE,159,0.0,0.0,85,0.00,,BKN011,0.00,VWS V14.01,2013-04-02 09:25:00,
2013-04-02 04:30:00,66.4,61.8,29.94,SSE,159,0.0,0.0,85,0.00,,BKN011,0.00,VWS V14.01,2013-04-02 09:30:00,
2013-04-02 04:35:00,66.4,61.8,29.94,SSE,159,0.0,0.0,85,0.00,,BKN011,0.00,VWS V14.01,2013-04-02 09:35:00,
2013-04-02 04:40:00,66.4,61.8,29.94,SSE,159,0.0,0.0,85,0.00,,BKN011,0.00,VWS V14.01,2013-04-02 09:40:00,
2013-04-02 04:45:00,66.4,61.8,29.94,SSE,159,0.0,0.0,85,0.00,,BKN011,0.00,VWS V14.01,2013-04-02 09:45:00,
2013-04-02 04:50:00,66.4,61.8,29.94,SSE,159,0.0,0.0,85,0.00,,BKN011,0.00,VWS V14.01,2013-04-02 09:50:00,
2013-04-02 04:55:00,66.4,61.8,29.94,SSE,159,0.0,0.0,85,0.00,,BKN011,0.00,VWS V14.01,2013-04-02 09:55:00,
2013-04-02 05:00:00,66.4,62.1,29.94,SSE,159,0.0,0.0,86,0.00,,BKN011,0.00,VWS V14.01,2013-04-02 10:00:00,
2013-04-02 05:05:00,66.4,62.1,29.95,SSE,159,0.0,0.0,86,0.00,,OVC013,0.00,VWS V14.01,2013-04-02 10:05:00,
2013-04-02 05:10:00,66.4,62.1,29.95,SSE,159,0.0,0.0,86,0.00,,OVC013,0.00,VWS V14.01,2013-04-02 10:10:00,
2013-04-02 05:15:00,66.4,62.1,29.95,SSE,159,0.0,0.0,86,0.00,,OVC013,0.00,VWS V14.01,2013-04-02 10:15:00,
2013-04-02 05:20:00,66.4,62.1,29.95,SSE,159,0.0,0.0,86,0.00,,OVC013,0.00,VWS V14.01,2013-04-02 10:20:00,
2013-04-02 05:25:00,66.4,62.1,29.95,SSE,159,0.0,0.0,86,0.00,,OVC013,0.00,VWS V14.01,2013-04-02 10:25:00,
2013-04-02 05:30:00,66.4,62.1,29.95,SSE,159,0.0,0.0,86,0.00,,OVC013,0.00,VWS V14.01,2013-04-02 10:30:00,
2013-04-02 05:35:00,66.3,62.3,29.95,SSE,159,0.0,0.0,87,0.00,,OVC013,0.00,VWS V14.01,2013-04-02 10:35:00,
2013-04-02 05:40:00,66.3,62.3,29.95,SSE,159,0.0,0.0,87,0.00,,OVC013,0.00,VWS V14.01,2013-04-02 10:40:00,
2013-04-02 05:45:00,66.3,62.3,29.95,SSE,159,0.0,0.0,87,0.00,,OVC013,0.00,VWS V14.01,2013-04-02 10:45:00,
2013-04-02 05:50:00,66.1,62.5,29.96,SSE,159,0.0,0.0,88,0.00,,OVC013,0.00,VWS V14.01,2013-04-02 10:50:00,
2013-04-02 05:55:00,66.1,62.5,29.96,SSE,159,0.0,0.0,88,0.00,,OVC013,0.00,VWS V14.01,2013-04-02 10:55:00,
2013-04-02 06:00:00,66.1,62.5,29.96,SSE,159,0.0,0.0,88,0.00,,OVC013,0.00,VWS V14.01,2013-04-02 11:00:00,
2013-04-02 06:05:00,65.9,62.2,29.96,SSE,159,0.0,0.0,88,0.00,,,0.00,VWS V14.01,2013-04-02 11:05:00,
2013-04-02 06:10:00,65.9,62.6,29.96,SSE,159,0.0,0.0,89,0.00,,,0.00,VWS V14.01,2013-04-02 11:10:00,
2013-04-02 06:15:00,65.8,62.5,29.96,SSE,159,0.0,0.0,89,0.00,,,0.00,VWS V14.01,2013-04-02 11:15:00,
2013-04-02 06:20:00,65.8,62.5,29.96,SE,130,0.0,4.0,89,0.00,,,0.00,VWS V14.01,2013-04-02 11:20:00,
2013-04-02 06:25:00,65.6,62.6,29.96,SE,130,0.0,4.0,90,0.00,,,0.00,VWS V14.01,2013-04-02 11:25:00,
2013-04-02 06:30:00,65.6,62.6,29.96,SE,130,0.0,1.0,90,0.00,,,0.00,VWS V14.01,2013-04-02 11:30:00,
2013-04-02 06:35:00,65.6,62.6,29.97,SE,130,1.0,1.0,90,0.00,,,0.00,VWS V14.01,2013-04-02 11:35:00,
2013-04-02 06:40:00,65.5,62.5,29.97,SE,130,0.0,2.0,90,0.00,,,0.00,VWS V14.01,2013-04-02 11:40:00,
2013-04-02 06:45:00,65.5,62.8,29.97,SE,130,0.0,2.0,91,0.00,,,0.00,VWS V14.01,2013-04-02 11:45:00,
2013-04-02 06:50:00,65.3,62.6,29.95,SE,126,0.0,1.0,91,0.00,,,0.00,VWS V14.01,2013-04-02 11:50:00,
2013-04-02 06:56:00,65.3,62.6,29.95,SE,126,0.0,1.0,91,0.00,,,0.00,VWS V14.01,2013-04-02 11:56:00,
2013-04-02 07:00:00,65.1,62.4,29.95,SE,126,0.0,0.0,91,0.00,,,0.00,VWS V14.01,2013-04-02 12:00:00,
2013-04-02 07:05:00,65.0,62.3,29.96,SE,126,0.0,1.0,91,0.00,,,0.00,VWS V14.01,2013-04-02 12:05:00,
2013-04-02 07:10:00,65.1,62.4,29.95,SE,126,0.0,1.0,91,0.00,,BKN016,0.00,VWS V14.01,2013-04-02 12:10:00,
2013-04-02 07:11:00,65.0,62.3,29.96,SE,126,0.0,1.0,91,0.00,,,0.00,VWS V14.01,2013-04-02 12:11:00,
2013-04-02 07:15:00,65.0,62.6,29.96,SE,126,0.0,1.0,92,0.00,,,0.00,VWS V14.01,2013-04-02 12:15:00,
2013-04-02 07:20:00,65.0,62.3,29.96,SE,126,0.0,1.0,91,0.00,,BKN016,0.00,VWS V14.01,2013-04-02 12:20:00,
2013-04-02 07:21:00,65.0,62.6,29.96,SE,126,0.0,0.0,92,0.00,,,0.00,VWS V14.01,2013-04-02 12:21:00,
2013-04-02 07:25:00,65.0,62.6,29.96,SE,126,0.0,0.0,92,0.00,,,0.00,VWS V14.01,2013-04-02 12:25:00,
2013-04-02 07:30:00,65.0,62.6,29.96,SE,126,1.0,1.0,92,0.00,,,0.00,VWS V14.01,2013-04-02 12:30:00,
2013-04-02 07:35:00,65.1,62.7,29.97,SE,125,0.0,1.0,92,0.00,,,0.00,VWS V14.01,2013-04-02 12:35:00,
2013-04-02 07:40:00,65.3,62.9,29.97,SE,125,0.0,0.0,92,0.00,,,0.00,VWS V14.01,2013-04-02 12:40:00,
2013-04-02 07:45:00,65.3,62.9,29.97,SE,125,0.0,0.0,92,0.00,,,0.00,VWS V14.01,2013-04-02 12:45:00,
2013-04-02 07:50:00,65.3,62.9,29.96,SE,125,0.0,0.0,92,0.00,,,0.00,VWS V14.01,2013-04-02 12:50:00,
2013-04-02 07:55:00,65.3,62.9,29.96,SE,125,0.0,1.0,92,0.00,,,0.00,VWS V14.01,2013-04-02 12:55:00,
2013-04-02 08:00:00,65.3,62.9,29.96,SE,125,0.0,0.0,92,0.00,,,0.00,VWS V14.01,2013-04-02 13:00:00,
2013-04-02 08:05:00,65.3,62.9,29.95,SE,125,0.0,0.0,92,0.00,,,0.00,VWS V14.01,2013-04-02 13:05:00,
2013-04-02 08:10:00,65.5,63.1,29.95,SE,125,0.0,0.0,92,0.00,,,0.00,VWS V14.01,2013-04-02 13:10:00,
2013-04-02 08:16:00,65.5,63.1,29.95,SE,125,0.0,0.0,92,0.00,,,0.00,VWS V14.01,2013-04-02 13:16:00,
2013-04-02 08:20:00,65.6,63.2,29.95,SE,125,0.0,1.0,92,0.00,,,0.00,VWS V14.01,2013-04-02 13:20:00,
2013-04-02 08:26:00,65.6,63.2,29.95,SE,125,0.0,1.0,92,0.00,,,0.00,VWS V14.01,2013-04-02 13:26:00,
2013-04-02 08:30:00,65.6,63.2,29.95,SE,125,0.0,1.0,92,0.00,,BKN016,0.00,VWS V14.01,2013-04-02 13:30:00,
2013-04-02 08:31:00,65.6,63.2,29.95,SE,125,0.0,1.0,92,0.00,,,0.00,VWS V14.01,2013-04-02 13:31:00,
2013-04-02 08:36:00,65.8,63.4,29.96,SE,125,0.0,1.0,92,0.00,,,0.00,VWS V14.01,2013-04-02 13:36:00,
2013-04-02 08:40:00,65.6,63.2,29.95,SE,125,0.0,1.0,92,0.00,,BKN016,0.00,VWS V14.01,2013-04-02 13:40:00,
2013-04-02 08:41:00,65.8,63.4,29.96,SE,125,0.0,0.0,92,0.00,,,0.00,VWS V14.01,2013-04-02 13:41:00,
2013-04-02 08:46:00,65.9,63.5,29.96,SE,125,0.0,0.0,92,0.00,,,0.00,VWS V14.01,2013-04-02 13:46:00,
2013-04-02 08:50:00,65.8,63.4,29.96,SE,125,0.0,1.0,92,0.00,,BKN016,0.00,VWS V14.01,2013-04-02 13:50:00,
2013-04-02 08:51:00,65.9,63.5,29.97,SE,125,0.0,0.0,92,0.00,,,0.00,VWS V14.01,2013-04-02 13:51:00,
2013-04-02 08:56:00,66.1,63.7,29.97,SE,125,0.0,0.0,92,0.00,,,0.00,VWS V14.01,2013-04-02 13:56:00,
2013-04-02 09:00:00,65.9,63.5,29.97,SE,125,0.0,1.0,92,0.00,,BKN016,0.00,VWS V14.01,2013-04-02 14:00:00,
2013-04-02 09:01:00,66.1,63.7,29.97,SE,125,0.0,0.0,92,0.00,,,0.00,VWS V14.01,2013-04-02 14:01:00,
2013-04-02 09:06:00,66.4,64.0,29.97,SE,125,0.0,0.0,92,0.00,,,0.00,VWS V14.01,2013-04-02 14:06:00,
2013-04-02 09:10:00,66.1,63.7,29.97,SE,125,0.0,0.0,92,0.00,,BKN016,0.00,VWS V14.01,2013-04-02 14:10:00,
2013-04-02 09:11:00,66.6,63.9,29.97,SE,125,4.0,4.0,91,0.00,,,0.00,VWS V14.01,2013-04-02 14:11:00,
2013-04-02 09:16:00,66.6,63.9,29.97,SE,125,0.0,4.0,91,0.00,,,0.00,VWS V14.01,2013-04-02 14:16:00,
2013-04-02 09:20:00,66.4,64.0,29.97,SE,125,0.0,0.0,92,0.00,,BKN016,0.00,VWS V14.01,2013-04-02 14:20:00,
2013-04-02 09:21:00,66.8,64.1,29.97,SE,126,0.0,1.0,91,0.00,,,0.00,VWS V14.01,2013-04-02 14:21:00,
2013-04-02 09:26:00,66.9,64.2,29.97,SE,126,0.0,1.0,91,0.00,,,0.00,VWS V14.01,2013-04-02 14:26:00,
2013-04-02 09:30:00,66.6,63.9,29.97,SE,125,1.0,4.0,91,0.00,,BKN016,0.00,VWS V14.01,2013-04-02 14:30:00,
2013-04-02 09:31:00,67.1,64.4,29.97,SE,126,0.0,2.0,91,0.00,,,0.00,VWS V14.01,2013-04-02 14:31:00,
2013-04-02 09:36:00,67.1,64.1,29.97,SE,126,1.0,2.0,90,0.00,,,0.00,VWS V14.01,2013-04-02 14:36:00,
2013-04-02 09:40:00,66.9,64.2,29.97,SE,126,0.0,1.0,91,0.00,,BKN016,0.00,VWS V14.01,2013-04-02 14:40:00,
2013-04-02 09:41:00,67.3,64.3,29.97,SE,126,0.0,0.0,90,0.00,,,0.00,VWS V14.01,2013-04-02 14:41:00,
2013-04-02 09:46:00,67.6,64.6,29.97,SE,126,0.0,0.0,90,0.00,,,0.00,VWS V14.01,2013-04-02 14:46:00,
2013-04-02 09:50:00,67.1,64.1,29.97,SE,126,0.0,2.0,90,0.00,,BKN016,0.00,VWS V14.01,2013-04-02 14:50:00,
2013-04-02 09:51:00,68.1,65.1,29.97,SE,126,0.0,1.0,90,0.00,,,0.00,VWS V14.01,2013-04-02 14:51:00,
2013-04-02 09:56:00,68.4,65.0,29.97,SE,134,0.0,4.0,89,0.00,,,0.00,VWS V14.01,2013-04-02 14:56:00,
2013-04-02 10:00:00,67.8,64.8,29.97,SE,126,0.0,0.0,90,0.00,,BKN016,0.00,VWS V14.01,2013-04-02 15:00:00,
2013-04-02 10:01:00,68.9,65.2,29.97,SE,134,0.0,0.0,88,0.00,,,0.00,VWS V14.01,2013-04-02 15:01:00,
2013-04-02 10:06:00,69.3,65.3,29.97,SE,146,0.0,2.0,87,0.00,,,0.00,VWS V14.01,2013-04-02 15:06:00,
2013-04-02 10:10:00,68.6,64.9,29.97,SE,134,0.0,4.0,88,0.00,,BKN016,0.00,VWS V14.01,2013-04-02 15:10:00,
2013-04-02 10:11:00,69.8,65.4,29.97,SSE,161,1.0,2.0,86,0.00,,,0.00,VWS V14.01,2013-04-02 15:11:00,
2013-04-02 10:16:00,70.1,65.4,29.97,South,173,1.0,5.0,85,0.00,,,0.00,VWS V14.01,2013-04-02 15:16:00,
2013-04-02 10:20:00,69.4,65.0,29.97,SSE,160,2.0,4.0,86,0.00,,BKN016,0.00,VWS V14.01,2013-04-02 15:20:00,
2013-04-02 10:21:00,70.6,65.2,29.97,South,180,1.0,4.0,83,0.00,,BKN009,0.00,VWS V14.01,2013-04-02 15:21:00,
2013-04-02 10:26:00,71.1,65.0,29.97,South,169,0.0,4.0,81,0.00,,BKN009,0.00,VWS V14.01,2013-04-02 15:26:00,
2013-04-02 10:30:00,70.3,64.9,29.97,South,191,0.0,5.0,83,0.00,,BKN016,0.00,VWS V14.01,2013-04-02 15:30:00,
2013-04-02 10:31:00,72.0,65.1,29.97,South,169,0.0,4.0,79,0.00,,BKN009,0.00,VWS V14.01,2013-04-02 15:31:00,
2013-04-02 10:36:00,72.3,64.7,29.96,South,179,1.0,5.0,77,0.00,,BKN009,0.00,VWS V14.01,2013-04-02 15:36:00,
2013-04-02 10:40:00,71.5,65.7,29.97,South,169,0.0,4.0,82,0.00,,BKN016,0.00,VWS V14.01,2013-04-02 15:40:00,
2013-04-02 10:42:00,72.7,64.3,29.96,South,177,0.0,5.0,75,0.00,,BKN015,0.00,VWS V14.01,2013-04-02 15:42:00,
2013-04-02 10:47:00,73.2,64.8,29.96,East,96,0.0,5.0,75,0.00,,BKN015,0.00,VWS V14.01,2013-04-02 15:47:00,
2013-04-02 10:50:00,72.5,64.9,29.96,SSE,159,4.0,5.0,77,0.00,,BKN016,0.00,VWS V14.01,2013-04-02 15:50:00,
2013-04-02 10:52:00,73.7,64.5,29.96,SSE,158,4.0,6.0,73,0.00,,BKN011,0.00,VWS V14.01,2013-04-02 15:52:00,
2013-04-02 10:57:00,74.2,64.2,29.96,South,190,2.0,6.0,71,0.00,,BKN011,0.00,VWS V14.01,2013-04-02 15:57:00,
2013-04-02 11:00:00,73.2,64.4,29.96,SE,127,1.0,5.0,74,0.00,,BKN016,0.00,VWS V14.01,2013-04-02 16:00:00,
2013-04-02 11:02:00,74.8,64.4,29.96,SSE,153,0.0,6.0,70,0.00,,BKN011,0.00,VWS V14.01,2013-04-02 16:02:00,
2013-04-02 11:07:00,75.1,63.8,29.96,SSE,168,1.0,6.0,68,0.00,,FEW015,0.00,VWS V14.01,2013-04-02 16:07:00,
2013-04-02 11:10:00,74.2,64.2,29.96,South,190,2.0,6.0,71,0.00,,BKN016,0.00,VWS V14.01,2013-04-02 16:10:00,
2013-04-02 11:13:00,75.5,64.6,29.96,SSE,168,2.0,4.0,69,0.00,,FEW015,0.00,VWS V14.01,2013-04-02 16:13:00,
2013-04-02 11:18:00,76.0,64.3,29.95,SSE,150,0.0,0.0,67,0.00,,FEW015,0.00,VWS V14.01,2013-04-02 16:18:00,
2013-04-02 11:20:00,75.1,63.8,29.96,SSE,168,1.0,6.0,68,0.00,,BKN016,0.00,VWS V14.01,2013-04-02 16:20:00,
2013-04-02 11:23:00,76.5,65.2,29.95,ENE,75,2.0,5.0,68,0.00,,FEW015,0.00,VWS V14.01,2013-04-02 16:23:00,
2013-04-02 11:28:00,76.9,64.2,29.95,SSE,153,0.0,0.0,65,0.00,,FEW015,0.00,VWS V14.01,2013-04-02 16:28:00,
2013-04-02 11:30:00,76.0,64.3,29.95,SSE,149,0.0,4.0,67,0.00,,BKN016,0.00,VWS V14.01,2013-04-02 16:30:00,
2013-04-02 11:33:00,76.9,64.2,29.95,ESE,116,0.0,5.0,65,0.00,,FEW015,0.00,VWS V14.01,2013-04-02 16:33:00,
2013-04-02 11:38:00,76.9,64.2,29.95,ESE,113,0.0,0.0,65,0.00,,FEW015,0.00,VWS V14.01,2013-04-02 16:38:00,
2013-04-02 11:40:00,76.9,64.2,29.95,SSE,153,0.0,5.0,65,0.00,,BKN016,0.00,VWS V14.01,2013-04-02 16:40:00,
2013-04-02 11:43:00,76.3,64.1,29.95,East,97,1.0,4.0,66,0.00,,FEW015,0.00,VWS V14.01,2013-04-02 16:43:00,
2013-04-02 11:48:00,76.0,63.0,29.95,SSE,168,2.0,4.0,64,0.00,,FEW015,0.00,VWS V14.01,2013-04-02 16:48:00,
2013-04-02 11:50:00,76.9,63.8,29.95,ESE,113,0.0,5.0,64,0.00,,BKN016,0.00,VWS V14.01,2013-04-02 16:50:00,
2013-04-02 11:53:00,75.8,63.6,29.95,SSE,168,0.0,4.0,66,0.00,,FEW015,0.00,VWS V14.01,2013-04-02 16:53:00,
2013-04-02 11:58:00,75.8,64.1,29.95,South,185,2.0,2.0,67,0.00,,FEW015,0.00,VWS V14.01,2013-04-02 16:58:00,
2013-04-02 12:00:00,76.2,63.2,29.95,SSE,168,2.0,5.0,64,0.00,,BKN016,0.00,VWS V14.01,2013-04-02 17:00:00,
2013-04-02 12:03:00,75.6,63.5,29.95,South,176,0.0,4.0,66,0.00,,FEW015,0.00,VWS V14.01,2013-04-02 17:03:00,
2013-04-02 12:08:00,75.8,63.6,29.95,SE,140,1.0,2.0,66,0.00,,BKN080,0.00,VWS V14.01,2013-04-02 17:08:00,
2013-04-02 12:10:00,75.8,63.6,29.95,South,182,1.0,4.0,66,0.00,,BKN016,0.00,VWS V14.01,2013-04-02 17:10:00,
2013-04-02 12:13:00,76.0,63.0,29.95,SE,141,2.0,5.0,64,0.00,,BKN080,0.00,VWS V14.01,2013-04-02 17:13:00,
2013-04-02 12:18:00,76.0,63.0,29.94,SE,140,1.0,2.0,64,0.00,,BKN080,0.00,VWS V14.01,2013-04-02 17:18:00,
2013-04-02 12:20:00,75.6,63.0,29.95,SE,146,0.0,4.0,65,0.00,,BKN016,0.00,VWS V14.01,2013-04-02 17:20:00,
2013-04-02 12:23:00,76.2,63.6,29.94,SSE,161,0.0,4.0,65,0.00,,BKN080,0.00,VWS V14.01,2013-04-02 17:23:00,
2013-04-02 12:28:00,76.3,62.8,29.94,SSE,161,0.0,2.0,63,0.00,,BKN080,0.00,VWS V14.01,2013-04-02 17:28:00,
2013-04-02 12:30:00,76.0,63.0,29.94,SSW,202,0.0,5.0,64,0.00,,BKN016,0.00,VWS V14.01,2013-04-02 17:30:00,
2013-04-02 12:33:00,76.2,62.7,29.94,SSE,156,1.0,2.0,63,0.00,,BKN080,0.00,VWS V14.01,2013-04-02 17:33:00,
2013-04-02 12:38:00,76.2,62.7,29.94,ESE,114,0.0,0.0,63,0.00,,BKN080,0.00,VWS V14.01,2013-04-02 17:38:00,
2013-04-02 12:40:00,76.3,63.2,29.94,SSE,161,1.0,4.0,64,0.00,,BKN016,0.00,VWS V14.01,2013-04-02 17:40:00,
2013-04-02 12:43:00,76.2,62.2,29.94,SSE,148,2.0,5.0,62,0.00,,BKN080,0.00,VWS V14.01,2013-04-02 17:43:00,
2013-04-02 12:49:00,76.2,61.8,29.94,South,173,0.0,6.0,61,0.00,,BKN080,0.00,VWS V14.01,2013-04-02 17:49:00,
2013-04-02 12:50:00,76.2,63.6,29.94,ESE,114,0.0,2.0,65,0.00,,BKN016,0.00,VWS V14.01,2013-04-02 17:50:00,
2013-04-02 12:54:00,76.0,62.0,29.94,South,176,2.0,6.0,62,0.00,,BKN080,0.00,VWS V14.01,2013-04-02 17:54:00,
2013-04-02 12:59:00,76.0,61.6,29.94,SSE,159,0.0,2.0,61,0.00,,BKN080,0.00,VWS V14.01,2013-04-02 17:59:00,
2013-04-02 13:00:00,76.2,61.8,29.94,South,171,2.0,5.0,61,0.00,,BKN016,0.00,VWS V14.01,2013-04-02 18:00:00,
2013-04-02 13:04:00,76.0,62.5,29.93,SSW,193,0.0,4.0,63,0.00,,OVC034,0.00,VWS V14.01,2013-04-02 18:04:00,
2013-04-02 13:09:00,76.0,61.6,29.93,SSE,155,2.0,4.0,61,0.00,,OVC034,0.00,VWS V14.01,2013-04-02 18:09:00,
2013-04-02 13:10:00,76.0,62.0,29.94,SSE,160,2.0,6.0,62,0.00,,BKN016,0.00,VWS V14.01,2013-04-02 18:10:00,
2013-04-02 13:14:00,76.2,62.2,29.93,SSE,149,0.0,4.0,62,0.00,,OVC034,0.00,VWS V14.01,2013-04-02 18:14:00,
2013-04-02 13:19:00,76.3,62.8,29.92,SSE,159,0.0,1.0,63,0.00,,OVC034,0.00,VWS V14.01,2013-04-02 18:19:00,
2013-04-02 13:20:00,76.0,61.6,29.93,SSE,154,2.0,5.0,61,0.00,,BKN016,0.00,VWS V14.01,2013-04-02 18:20:00,
2013-04-02 13:24:00,76.5,62.1,29.92,SSE,160,0.0,1.0,61,0.00,,OVC034,0.00,VWS V14.01,2013-04-02 18:24:00,
2013-04-02 13:29:00,76.5,62.1,29.92,SSE,160,0.0,1.0,61,0.00,,OVC034,0.00,VWS V14.01,2013-04-02 18:29:00,
2013-04-02 13:30:00,76.3,61.9,29.92,SSE,160,1.0,4.0,61,0.00,,BKN016,0.00,VWS V14.01,2013-04-02 18:30:00,
2013-04-02 13:34:00,76.5,62.5,29.92,South,178,0.0,5.0,62,0.00,,OVC034,0.00,VWS V14.01,2013-04-02 18:34:00,
2013-04-02 13:39:00,76.7,62.2,29.92,South,187,0.0,1.0,61,0.00,,OVC034,0.00,VWS V14.01,2013-04-02 18:39:00,
2013-04-02 13:40:00,76.5,62.5,29.92,SSE,160,0.0,2.0,62,0.00,,BKN016,0.00,VWS V14.01,2013-04-02 18:40:00,
2013-04-02 13:45:00,77.1,63.5,29.92,South,187,0.0,2.0,63,0.00,,OVC034,0.00,VWS V14.01,2013-04-02 18:45:00,
2013-04-02 13:50:00,77.2,62.2,29.91,South,182,0.0,4.0,60,0.00,,OVC034,0.00,VWS V14.01,2013-04-02 18:50:00,
2013-04-02 13:55:00,77.1,63.1,29.91,SSE,161,1.0,5.0,62,0.00,,OVC034,0.00,VWS V14.01,2013-04-02 18:55:00,
2013-04-02 14:00:00,77.1,62.6,29.91,SSE,165,4.0,4.0,61,0.00,,OVC034,0.00,VWS V14.01,2013-04-02 19:00:00,
2013-04-02 14:05:00,76.9,63.4,29.90,SSE,165,0.0,4.0,63,0.00,,OVC060,0.00,VWS V14.01,2013-04-02 19:05:00,
2013-04-02 14:10:00,76.9,62.9,29.90,SE,138,0.0,4.0,62,0.00,,OVC060,0.00,VWS V14.01,2013-04-02 19:10:00,
2013-04-02 14:15:00,76.9,63.4,29.90,SE,134,1.0,4.0,63,0.00,,OVC060,0.00,VWS V14.01,2013-04-02 19:15:00,
2013-04-02 14:20:00,76.5,63.4,29.89,SE,137,0.0,1.0,64,0.00,,OVC060,0.00,VWS V14.01,2013-04-02 19:20:00,
2013-04-02 14:25:00,76.3,63.2,29.89,SSE,152,0.0,4.0,64,0.00,,OVC060,0.00,VWS V14.01,2013-04-02 19:25:00,
2013-04-02 14:30:00,76.2,63.1,29.89,South,186,0.0,4.0,64,0.00,,OVC060,0.00,VWS V14.01,2013-04-02 19:30:00,
2013-04-02 14:35:00,76.0,63.0,29.88,South,182,0.0,4.0,64,0.00,,OVC060,0.00,VWS V14.01,2013-04-02 19:35:00,
2013-04-02 14:40:00,76.0,63.0,29.88,South,182,0.0,1.0,64,0.00,,OVC060,0.00,VWS V14.01,2013-04-02 19:40:00,
2013-04-02 14:45:00,76.0,63.0,29.88,South,182,0.0,1.0,64,0.00,,OVC060,0.00,VWS V14.01,2013-04-02 19:45:00,
2013-04-02 14:50:00,76.0,62.5,29.87,South,182,0.0,1.0,63,0.00,,OVC060,0.00,VWS V14.01,2013-04-02 19:50:00,
2013-04-02 14:55:00,76.0,62.5,29.87,South,182,1.0,2.0,63,0.00,,OVC060,0.00,VWS V14.01,2013-04-02 19:55:00,
2013-04-02 15:00:00,76.0,63.0,29.87,South,182,0.0,1.0,64,0.00,,OVC060,0.00,VWS V14.01,2013-04-02 20:00:00,
2013-04-02 15:05:00,76.2,63.1,29.86,South,182,0.0,1.0,64,0.00,,OVC043,0.00,VWS V14.01,2013-04-02 20:05:00,
2013-04-02 15:10:00,76.0,62.5,29.87,South,182,0.0,2.0,63,0.00,,BKN016,0.00,VWS V14.01,2013-04-02 20:10:00,
2013-04-02 15:11:00,76.3,63.2,29.86,SSE,150,5.0,5.0,64,0.00,,OVC043,0.00,VWS V14.01,2013-04-02 20:11:00,
2013-04-02 15:16:00,76.5,63.0,29.86,South,169,0.0,5.0,63,0.00,,OVC043,0.00,VWS V14.01,2013-04-02 20:16:00,
2013-04-02 15:20:00,76.2,63.2,29.86,South,182,0.0,1.0,64,0.00,,BKN016,0.00,VWS V14.01,2013-04-02 20:20:00,
2013-04-02 15:21:00,76.5,62.1,29.84,SSE,153,2.0,6.0,61,0.00,,OVC043,0.00,VWS V14.01,2013-04-02 20:21:00,
2013-04-02 15:26:00,76.5,62.1,29.84,SSE,157,1.0,6.0,61,0.00,,OVC043,0.00,VWS V14.01,2013-04-02 20:26:00,
2013-04-02 15:30:00,76.5,62.1,29.84,SSE,167,5.0,5.0,61,0.00,,BKN016,0.00,VWS V14.01,2013-04-02 20:30:00,
2013-04-02 15:31:00,76.5,62.1,29.84,South,180,3.0,6.0,61,0.00,,OVC043,0.00,VWS V14.01,2013-04-02 20:31:00,
2013-04-02 15:36:00,76.5,62.1,29.84,South,180,0.0,6.0,61,0.00,,OVC043,0.00,VWS V14.01,2013-04-02 20:36:00,
2013-04-02 15:40:00,76.5,62.1,29.84,SSE,157,1.0,6.0,61,0.00,,BKN016,0.00,VWS V14.01,2013-04-02 20:40:00,
2013-04-02 15:41:00,76.5,62.5,29.84,South,180,0.0,3.0,62,0.00,,OVC043,0.00,VWS V14.01,2013-04-02 20:41:00,
2013-04-02 15:46:00,76.5,63.0,29.84,South,180,0.0,3.0,63,0.00,,OVC043,0.00,VWS V14.01,2013-04-02 20:46:00,
2013-04-02 15:50:00,76.5,62.5,29.84,South,180,2.0,6.0,62,0.00,,BKN016,0.00,VWS V14.01,2013-04-02 20:50:00,
2013-04-02 15:51:00,76.5,63.0,29.83,South,180,0.0,1.0,63,0.00,,OVC043,0.00,VWS V14.01,2013-04-02 20:51:00,
2013-04-02 15:56:00,76.5,63.0,29.83,South,180,0.0,2.0,63,0.00,,OVC043,0.00,VWS V14.01,2013-04-02 20:56:00,
2013-04-02 16:00:00,76.5,63.0,29.83,South,180,1.0,3.0,63,0.00,,BKN016,0.00,VWS V14.01,2013-04-02 21:00:00,
2013-04-02 16:01:00,76.9,63.4,29.83,South,180,0.0,0.0,63,0.00,,-RA,0.00,VWS V14.01,2013-04-02 21:01:00,
2013-04-02 16:07:00,77.4,62.9,29.83,South,180,0.0,1.0,61,0.00,,-RA,0.00,VWS V14.01,2013-04-02 21:07:00,
2013-04-02 16:10:00,76.5,63.0,29.83,South,180,0.0,2.0,63,0.00,,BKN016,0.00,VWS V14.01,2013-04-02 21:10:00,
2013-04-02 16:12:00,78.3,63.8,29.83,South,178,0.0,1.0,61,0.00,,-RA,0.00,VWS V14.01,2013-04-02 21:12:00,
2013-04-02 16:17:00,78.5,63.5,29.82,South,178,0.0,1.0,60,0.00,,-RA,0.00,VWS V14.01,2013-04-02 21:17:00,
2013-04-02 16:20:00,77.6,63.1,29.83,South,178,0.0,2.0,61,0.00,,BKN016,0.00,VWS V14.01,2013-04-02 21:20:00,
2013-04-02 16:22:00,78.5,63.5,29.82,South,181,2.0,4.0,60,0.00,,-RA,0.00,VWS V14.01,2013-04-02 21:22:00,
2013-04-02 16:27:00,78.3,63.3,29.82,SSE,165,0.0,4.0,60,0.00,,-RA,0.00,VWS V14.01,2013-04-02 21:27:00,
2013-04-02 16:30:00,78.5,63.5,29.82,South,178,0.0,1.0,60,0.00,,BKN016,0.00,VWS V14.01,2013-04-02 21:30:00,
2013-04-02 16:32:00,78.1,63.6,29.81,SSE,165,0.0,2.0,61,0.00,,-RA,0.00,VWS V14.01,2013-04-02 21:32:00,
2013-04-02 16:37:00,78.0,63.0,29.81,SSE,165,0.0,2.0,60,0.00,,-RA,0.00,VWS V14.01,2013-04-02 21:37:00,
2013-04-02 16:40:00,78.3,63.3,29.82,SSE,165,0.0,4.0,60,0.00,,BKN016,0.00,VWS V14.01,2013-04-02 21:40:00,
2013-04-02 16:42:00,78.0,63.0,29.81,SSE,165,0.0,1.0,60,0.00,,-RA,0.00,VWS V14.01,2013-04-02 21:42:00,
2013-04-02 16:47:00,78.0,62.5,29.81,SSE,166,0.0,2.0,59,0.00,,-RA,0.00,VWS V14.01,2013-04-02 21:47:00,
2013-04-02 16:50:00,78.0,63.5,29.81,SSE,165,1.0,2.0,61,0.00,,BKN016,0.00,VWS V14.01,2013-04-02 21:50:00,
2013-04-02 16:52:00,78.0,63.0,29.81,SSE,166,0.0,0.0,60,0.00,,-RA,0.00,VWS V14.01,2013-04-02 21:52:00,
2013-04-02 16:57:00,78.0,62.5,29.81,SSE,166,0.0,1.0,59,0.00,,-RA,0.00,VWS V14.01,2013-04-02 21:57:00,
2013-04-02 17:00:00,78.0,62.5,29.81,SSE,166,0.0,2.0,59,0.00,,BKN016,0.00,VWS V14.01,2013-04-02 22:00:00,
2013-04-02 17:02:00,77.8,64.7,29.80,NW,315,1.0,4.0,64,0.00,,OVC037,0.00,VWS V14.01,2013-04-02 22:02:00,
2013-04-02 17:07:00,76.7,65.3,29.80,NW,319,0.0,4.0,68,0.00,,OVC037,0.00,VWS V14.01,2013-04-02 22:07:00,
2013-04-02 17:10:00,78.0,62.5,29.81,SSE,166,0.0,1.0,59,0.00,,BKN016,0.00,VWS V14.01,2013-04-02 22:10:00,
2013-04-02 17:12:00,75.5,65.0,29.80,NW,319,0.0,0.0,70,0.00,,OVC037,0.00,VWS V14.01,2013-04-02 22:12:00,
2013-04-02 17:18:00,74.2,64.6,29.81,NW,319,0.0,2.0,72,0.00,,OVC037,0.00,VWS V14.01,2013-04-02 22:18:00,
2013-04-02 17:20:00,76.7,65.3,29.80,NW,319,0.0,4.0,68,0.00,,BKN016,0.00,VWS V14.01,2013-04-02 22:20:00,
2013-04-02 17:23:00,73.4,65.0,29.81,NW,319,0.0,4.0,75,0.00,,OVC037,0.00,VWS V14.01,2013-04-02 22:23:00,
2013-04-02 17:28:00,72.7,64.3,29.81,North,10,1.0,4.0,75,0.00,,OVC037,0.00,VWS V14.01,2013-04-02 22:28:00,
2013-04-02 17:30:00,74.2,64.6,29.81,NW,319,0.0,2.0,72,0.00,,BKN016,0.00,VWS V14.01,2013-04-02 22:30:00,
2013-04-02 17:33:00,71.8,63.5,29.81,North,355,0.0,4.0,75,0.00,,OVC039,0.00,VWS V14.01,2013-04-02 22:33:00,
2013-04-02 17:38:00,71.1,63.2,29.81,NE,40,1.0,5.0,76,0.00,,OVC039,0.00,VWS V14.01,2013-04-02 22:38:00,
2013-04-02 17:40:00,72.7,64.3,29.81,North,10,1.0,4.0,75,0.00,,BKN016,0.00,VWS V14.01,2013-04-02 22:40:00,
2013-04-02 17:43:00,70.8,63.2,29.81,NE,49,0.0,4.0,77,0.00,,OVC039,0.00,VWS V14.01,2013-04-02 22:43:00,
2013-04-02 17:48:00,70.6,63.0,29.81,NE,35,0.0,1.0,77,0.00,,OVC039,0.00,VWS V14.01,2013-04-02 22:48:00,
2013-04-02 17:50:00,71.1,63.2,29.81,NE,40,1.0,5.0,76,0.00,,BKN016,0.00,VWS V14.01,2013-04-02 22:50:00,
2013-04-02 17:53:00,70.3,63.1,29.81,North,5,3.0,3.0,78,0.00,,OVC039,0.00,VWS V14.01,2013-04-02 22:53:00,
2013-04-02 17:58:00,69.9,62.7,29.81,NE,38,0.0,1.0,78,0.00,,OVC039,0.00,VWS V14.01,2013-04-02 22:58:00,
2013-04-02 18:00:00,70.6,63.0,29.81,NE,35,0.0,4.0,77,0.00,,BKN016,0.00,VWS V14.01,2013-04-02 23:00:00,
2013-04-02 18:03:00,69.8,63.0,29.82,NE,38,0.0,3.0,79,0.00,,OVC070,0.00,VWS V14.01,2013-04-02 23:03:00,
2013-04-02 18:08:00,69.4,63.0,29.82,North,355,0.0,1.0,80,0.01,,OVC070,0.01,VWS V14.01,2013-04-02 23:08:00,
2013-04-02 18:10:00,69.9,62.7,29.81,NE,38,0.0,4.0,78,0.00,,BKN016,0.00,VWS V14.01,2013-04-02 23:10:00,
2013-04-02 18:13:00,69.3,63.2,29.82,NNE,26,0.0,4.0,81,0.01,,OVC070,0.01,VWS V14.01,2013-04-02 23:13:00,
2013-04-02 18:18:00,69.1,63.4,29.82,NNW,336,1.0,5.0,82,0.01,,OVC070,0.01,VWS V14.01,2013-04-02 23:18:00,
2013-04-02 18:20:00,69.6,63.2,29.82,North,355,1.0,4.0,80,0.01,,BKN016,0.01,VWS V14.01,2013-04-02 23:20:00,
2013-04-02 18:23:00,68.9,63.5,29.82,NNW,328,0.0,5.0,83,0.01,,OVC070,0.01,VWS V14.01,2013-04-02 23:23:00,
2013-04-02 18:28:00,68.8,63.4,29.82,North,355,1.0,1.0,83,0.01,,OVC070,0.01,VWS V14.01,2013-04-02 23:28:00,
2013-04-02 18:30:00,69.1,63.4,29.82,NNW,336,5.0,5.0,82,0.01,,BKN016,0.01,VWS V14.01,2013-04-02 23:30:00,
2013-04-02 18:33:00,68.6,62.9,29.82,North,5,2.0,5.0,82,0.01,,OVC070,0.01,VWS V14.01,2013-04-02 23:33:00,
2013-04-02 18:38:00,68.4,62.0,29.82,North,11,3.0,3.0,80,0.01,,OVC070,0.01,VWS V14.01,2013-04-02 23:38:00,
2013-04-02 18:40:00,68.8,63.4,29.82,North,355,0.0,5.0,83,0.01,,BKN016,0.01,VWS V14.01,2013-04-02 23:40:00,
2013-04-02 18:43:00,68.3,61.2,29.82,NNE,21,0.0,4.0,78,0.01,,OVC070,0.01,VWS V14.01,2013-04-02 23:43:00,
2013-04-02 18:48:00,67.9,60.4,29.83,NNW,340,1.0,4.0,77,0.01,,OVC070,0.01,VWS V14.01,2013-04-02 23:48:00,
2013-04-02 18:50:00,68.4,62.3,29.82,NNE,15,3.0,5.0,81,0.01,,BKN016,0.01,VWS V14.01,2013-04-02 23:50:00,
2013-04-02 18:53:00,67.8,60.7,29.83,North,9,1.0,6.0,78,0.01,,OVC070,0.01,VWS V14.01,2013-04-02 23:53:00,
2013-04-02 18:59:00,67.3,60.6,29.83,North,9,5.0,5.0,79,0.01,,OVC070,0.01,VWS V14.01,2013-04-02 23:59:00,
2013-04-02 19:00:00,68.1,60.6,29.83,NNW,342,3.0,8.0,77,0.01,,BKN016,0.01,VWS V14.01,2013-04-03 00:00:00,
2013-04-02 19:04:00,66.9,60.5,29.83,NNE,13,2.0,5.0,80,0.01,,,0.01,VWS V14.01,2013-04-03 00:04:00,
2013-04-02 19:09:00,66.8,60.8,29.83,North,355,3.0,5.0,81,0.00,,,0.01,VWS V14.01,2013-04-03 00:09:00,
2013-04-02 19:10:00,67.4,60.7,29.83,North,355,2.0,6.0,79,0.01,,BKN016,0.01,VWS V14.01,2013-04-03 00:10:00,
2013-04-02 19:14:00,66.4,60.7,29.83,North,355,2.0,5.0,82,0.00,,,0.01,VWS V14.01,2013-04-03 00:14:00,
2013-04-02 19:19:00,66.3,61.0,29.83,NE,40,2.0,6.0,83,0.00,,,0.01,VWS V14.01,2013-04-03 00:19:00,
2013-04-02 19:20:00,66.8,60.8,29.83,NNW,335,3.0,6.0,81,0.01,,BKN016,0.01,VWS V14.01,2013-04-03 00:20:00,
2013-04-02 19:24:00,66.1,60.8,29.83,ENE,74,0.0,6.0,83,0.00,,OVC080,0.01,VWS V14.01,2013-04-03 00:24:00,
2013-04-02 19:29:00,66.1,60.8,29.83,NNE,30,1.0,3.0,83,0.00,,OVC080,0.01,VWS V14.01,2013-04-03 00:29:00,
2013-04-02 19:30:00,66.4,61.1,29.83,North,10,1.0,6.0,83,0.00,,BKN016,0.01,VWS V14.01,2013-04-03 00:30:00,
2013-04-02 19:34:00,66.1,61.1,29.84,NNE,30,0.0,3.0,84,0.00,,OVC080,0.01,VWS V14.01,2013-04-03 00:34:00,
2013-04-02 19:39:00,66.1,61.1,29.84,ESE,112,1.0,3.0,84,0.00,,OVC080,0.01,VWS V14.01,2013-04-03 00:39:00,
2013-04-02 19:40:00,66.1,60.8,29.83,East,83,2.0,6.0,83,0.00,,BKN016,0.01,VWS V14.01,2013-04-03 00:40:00,
2013-04-02 19:44:00,66.1,61.5,29.84,NE,50,1.0,5.0,85,0.00,,OVC080,0.01,VWS V14.01,2013-04-03 00:44:00,
2013-04-02 19:49:00,65.9,61.3,29.83,ENE,63,2.0,2.0,85,0.00,,OVC080,0.01,VWS V14.01,2013-04-03 00:49:00,
2013-04-02 19:50:00,66.1,61.1,29.84,NE,42,1.0,3.0,84,0.00,,BKN016,0.01,VWS V14.01,2013-04-03 00:50:00,
2013-04-02 19:54:00,65.9,61.3,29.83,ENE,62,1.0,3.0,85,0.00,,OVC080,0.01,VWS V14.01,2013-04-03 00:54:00,
2013-04-02 19:59:00,65.8,60.8,29.83,ENE,69,2.0,5.0,84,0.00,,OVC080,0.01,VWS V14.01,2013-04-03 00:59:00,
2013-04-02 20:00:00,66.1,61.5,29.83,NE,53,0.0,5.0,85,0.00,,BKN016,0.01,VWS V14.01,2013-04-03 01:00:00,
2013-04-02 20:05:00,65.6,60.6,29.83,NE,39,2.0,6.0,84,0.00,,OVC065,0.01,VWS V14.01,2013-04-03 01:05:00,
2013-04-02 20:10:00,65.5,60.2,29.83,NE,46,0.0,4.0,83,0.00,,OVC065,0.01,VWS V14.01,2013-04-03 01:10:00,
2013-04-02 20:15:00,65.3,60.0,29.83,ENE,78,0.0,5.0,83,0.00,,OVC065,0.01,VWS V14.01,2013-04-03 01:15:00,
2013-04-02 20:20:00,65.3,60.0,29.82,ESE,121,1.0,7.0,83,0.00,,OVC065,0.01,VWS V14.01,2013-04-03 01:20:00,
2013-04-02 20:25:00,65.3,60.0,29.82,East,100,1.0,8.0,83,0.00,,OVC065,0.01,VWS V14.01,2013-04-03 01:25:00,
2013-04-02 20:30:00,65.5,60.2,29.82,NNE,24,0.0,0.0,83,0.00,,OVC065,0.01,VWS V14.01,2013-04-03 01:30:00,
2013-04-02 20:35:00,65.6,60.3,29.83,ESE,123,0.0,4.0,83,0.00,,OVC065,0.01,VWS V14.01,2013-04-03 01:35:00,
2013-04-02 20:40:00,65.6,60.3,29.83,East,101,1.0,2.0,83,0.00,,OVC065,0.01,VWS V14.01,2013-04-03 01:40:00,
2013-04-02 20:45:00,65.8,60.5,29.83,NE,38,3.0,5.0,83,0.00,,OVC065,0.01,VWS V14.01,2013-04-03 01:45:00,
2013-04-02 20:50:00,65.9,60.6,29.83,ENE,77,0.0,2.0,83,0.00,,OVC065,0.01,VWS V14.01,2013-04-03 01:50:00,
2013-04-02 20:55:00,66.1,60.8,29.83,ESE,117,0.0,2.0,83,0.00,,OVC065,0.01,VWS V14.01,2013-04-03 01:55:00,
2013-04-02 21:00:00,66.1,60.8,29.83,NNE,14,0.0,5.0,83,0.00,,OVC065,0.01,VWS V14.01,2013-04-03 02:00:00,
2013-04-02 21:05:00,65.9,60.9,29.83,NE,35,1.0,5.0,84,0.00,,OVC060,0.01,VWS V14.01,2013-04-03 02:05:00,
2013-04-02 21:10:00,65.9,60.9,29.83,ENE,62,0.0,2.0,84,0.00,,OVC060,0.01,VWS V14.01,2013-04-03 02:10:00,
2013-04-02 21:15:00,65.9,60.9,29.83,ESE,107,0.0,3.0,84,0.00,,OVC060,0.01,VWS V14.01,2013-04-03 02:15:00,
2013-04-02 21:20:00,65.9,60.9,29.84,East,96,0.0,0.0,84,0.00,,OVC060,0.01,VWS V14.01,2013-04-03 02:20:00,
2013-04-02 21:25:00,65.8,60.8,29.84,NNE,29,0.0,3.0,84,0.00,,OVC060,0.01,VWS V14.01,2013-04-03 02:25:00,
2013-04-02 21:30:00,65.8,60.8,29.84,NNE,27,0.0,0.0,84,0.00,,OVC060,0.01,VWS V14.01,2013-04-03 02:30:00,
2013-04-02 21:35:00,65.9,60.9,29.85,NE,37,0.0,2.0,84,0.00,,OVC060,0.01,VWS V14.01,2013-04-03 02:35:00,
2013-04-02 21:40:00,65.9,60.9,29.85,NE,37,0.0,1.0,84,0.00,,OVC060,0.01,VWS V14.01,2013-04-03 02:40:00,
2013-04-02 21:45:00,65.9,60.9,29.85,NE,37,0.0,1.0,84,0.00,,OVC060,0.01,VWS V14.01,2013-04-03 02:45:00,
2013-04-02 21:50:00,65.9,60.9,29.85,NE,37,1.0,2.0,84,0.00,,BKN016,0.01,VWS V14.01,2013-04-03 02:50:00,
2013-04-02 21:51:00,65.9,60.9,29.86,NE,37,0.0,2.0,84,0.00,,OVC060,0.01,VWS V14.01,2013-04-03 02:51:00,
2013-04-02 21:56:00,65.9,60.9,29.86,NE,37,0.0,2.0,84,0.00,,OVC060,0.01,VWS V14.01,2013-04-03 02:56:00,
2013-04-02 22:00:00,65.9,60.9,29.86,NE,37,0.0,1.0,84,0.00,,BKN016,0.01,VWS V14.01,2013-04-03 03:00:00,
2013-04-02 22:01:00,65.9,60.9,29.86,ENE,78,0.0,4.0,84,0.00,,OVC085,0.01,VWS V14.01,2013-04-03 03:01:00,
2013-04-02 22:06:00,65.9,60.9,29.86,ENE,78,2.0,4.0,84,0.00,,OVC085,0.01,VWS V14.01,2013-04-03 03:06:00,
2013-04-02 22:10:00,65.9,60.9,29.86,NE,37,0.0,2.0,84,0.00,,BKN016,0.01,VWS V14.01,2013-04-03 03:10:00,
2013-04-02 22:12:00,65.9,60.9,29.86,East,81,0.0,1.0,84,0.00,,OVC085,0.01,VWS V14.01,2013-04-03 03:12:00,
2013-04-02 22:17:00,65.8,61.2,29.86,ENE,67,0.0,2.0,85,0.00,,OVC085,0.01,VWS V14.01,2013-04-03 03:17:00,
2013-04-02 22:20:00,65.9,60.9,29.86,ENE,78,0.0,4.0,84,0.00,,BKN016,0.01,VWS V14.01,2013-04-03 03:20:00,
2013-04-02 22:22:00,65.8,61.2,29.86,East,85,0.0,2.0,85,0.00,,OVC085,0.01,VWS V14.01,2013-04-03 03:22:00,
2013-04-02 22:27:00,65.8,61.5,29.86,ENE,65,0.0,2.0,86,0.00,,OVC085,0.01,VWS V14.01,2013-04-03 03:27:00,
2013-04-02 22:30:00,65.8,61.2,29.86,ENE,67,0.0,2.0,85,0.00,,BKN016,0.01,VWS V14.01,2013-04-03 03:30:00,
2013-04-02 22:32:00,65.6,61.3,29.87,ENE,65,0.0,2.0,86,0.00,,OVC085,0.01,VWS V14.01,2013-04-03 03:32:00,
2013-04-02 22:37:00,65.6,61.3,29.87,ENE,65,0.0,2.0,86,0.00,,OVC085,0.01,VWS V14.01,2013-04-03 03:37:00,
2013-04-02 22:40:00,65.8,61.5,29.86,ENE,65,0.0,2.0,86,0.00,,BKN016,0.01,VWS V14.01,2013-04-03 03:40:00,
2013-04-02 22:42:00,65.6,61.3,29.87,East,101,0.0,3.0,86,0.00,,OVC085,0.01,VWS V14.01,2013-04-03 03:42:00,
2013-04-02 22:47:00,65.6,61.6,29.87,East,98,1.0,3.0,87,0.00,,OVC085,0.01,VWS V14.01,2013-04-03 03:47:00,
2013-04-02 22:50:00,65.6,61.3,29.87,ENE,65,0.0,2.0,86,0.00,,BKN016,0.01,VWS V14.01,2013-04-03 03:50:00,
2013-04-02 22:52:00,65.6,61.6,29.87,East,96,0.0,2.0,87,0.00,,OVC100,0.01,VWS V14.01,2013-04-03 03:52:00,
2013-04-02 22:57:00,65.5,61.5,29.87,East,96,0.0,2.0,87,0.00,,OVC100,0.01,VWS V14.01,2013-04-03 03:57:00,
2013-04-02 23:00:00,65.5,61.5,29.87,East,96,0.0,1.0,87,0.00,,OVC100,0.01,VWS V14.01,2013-04-03 04:00:00,
2013-04-02 23:01:00,65.5,61.5,29.87,SE,128,1.0,5.0,87,0.00,,OVC011,0.01,VWS V14.01,2013-04-03 04:01:00,
2013-04-02 23:06:00,65.5,61.5,29.88,ESE,103,2.0,5.0,87,0.00,,OVC011,0.01,VWS V14.01,2013-04-03 04:06:00,
2013-04-02 23:10:00,65.5,61.5,29.87,East,96,0.0,2.0,87,0.00,,BKN016,0.01,VWS V14.01,2013-04-03 04:10:00,
2013-04-02 23:11:00,65.5,61.5,29.88,East,99,0.0,2.0,87,0.00,,OVC009,0.01,VWS V14.01,2013-04-03 04:11:00,
2013-04-02 23:17:00,65.5,61.5,29.88,East,99,0.0,2.0,87,0.00,,OVC009,0.01,VWS V14.01,2013-04-03 04:17:00,
2013-04-02 23:20:00,65.5,61.5,29.88,ESE,107,0.0,5.0,87,0.00,,BKN016,0.01,VWS V14.01,2013-04-03 04:20:00,
2013-04-02 23:22:00,65.5,61.5,29.88,East,99,0.0,2.0,87,0.00,,OVC009,0.01,VWS V14.01,2013-04-03 04:22:00,
2013-04-02 23:27:00,65.5,61.5,29.88,East,99,0.0,2.0,87,0.00,,OVC009,0.01,VWS V14.01,2013-04-03 04:27:00,
2013-04-02 23:30:00,65.5,61.5,29.88,East,99,0.0,2.0,87,0.00,,BKN016,0.01,VWS V14.01,2013-04-03 04:30:00,
2013-04-02 23:32:00,65.5,61.5,29.90,East,99,0.0,0.0,87,0.00,,OVC012,0.01,VWS V14.01,2013-04-03 04:32:00,
2013-04-02 23:37:00,65.6,62.0,29.90,East,99,0.0,0.0,88,0.00,,OVC012,0.01,VWS V14.01,2013-04-03 04:37:00,
2013-04-02 23:40:00,65.5,61.5,29.88,East,99,0.0,2.0,87,0.00,,BKN016,0.01,VWS V14.01,2013-04-03 04:40:00,
2013-04-02 23:42:00,65.6,62.0,29.90,East,99,0.0,0.0,88,0.00,,OVC012,0.01,VWS V14.01,2013-04-03 04:42:00,
2013-04-02 23:47:00,65.8,62.2,29.97,ESE,121,0.0,2.0,88,0.00,,OVC012,0.01,VWS V14.01,2013-04-03 04:47:00,
2013-04-02 23:50:00,65.6,62.0,29.90,East,99,0.0,0.0,88,0.00,,BKN016,0.01,VWS V14.01,2013-04-03 04:50:00,
2013-04-02 23:52:00,65.8,62.2,29.97,SW,231,2.0,8.0,88,0.00,,OVC012,0.00,VWS V14.01,2013-04-03 04:52:00,
2013-04-02 23:57:00,62.9,55.6,29.97,WSW,244,1.0,8.0,77,0.05,,OVC012,0.05,VWS V14.01,2013-04-03 04:57:00,